{"data":{"norad_id":43030,"intl_designator":"2017-075C","name":"YAOGAN-30 03C","alt_names":[],"object_type":"PAYLOAD","status":"ACTIVE","operator":null,"country":"PRC","launch_date":"2017-11-24","launch_site_code":"XICLF","launch_vehicle":null,"mission":null,"orbit_class":"UNKNOWN","rcs_meters":null,"size_class":null,"mass_kg":null,"dimensions":null,"purposes":[],"wikipedia_slug":null,"has_3d_model":false,"image_url":null,"decayed_at":null,"tle_current":{"epoch":"2026-09-20T02:42:56.827008Z","epoch_age_seconds":85596,"freshness":"FRESH","line1":"1 43030U 17075C   26263.11315772  .00001782  00000+0  13161-3 0  9998","line2":"2 43030  34.9952  51.4425 0001871 175.9950 184.0774 15.03088527481719","mean_motion":15.03088527,"eccentricity":0.0001871,"inclination_deg":34.9952,"raan_deg":51.4425,"arg_perigee_deg":175.995,"mean_anomaly_deg":184.0774,"bstar":0.00013161,"rev_number":48171,"period_min":95.802740432999,"perigee_km":556.08173924029,"apogee_km":558.67700946758,"semimajor_km":6935.5163743539,"source":"CELESTRAK","updated_at":"2026-09-20T09:00:14.267307Z"}}}